IW2NIA-3 Weather Reports


time (UTC)temp
C
wind
direction
speed
KPH
gust
KPH
rain 1hr
cm
rain 24hr
cm
rain mn
cm
humidity
%
barometer
mb
20260507040326 10 84 4.8 8.0 0.08 3.96 0.08 89 1011.0
20260507034843 11 72 4.8 11.3 0.05 3.94 0.05 89 1010.8
20260507033336 11 84 8.0 19.3 0.05 3.99 0.05 89 1010.8
20260507031829 11 65 4.8 11.3 0.03 3.96 0.03 88 1010.9
20260507030341 11 73 4.8 17.7 0.00 3.94 0.00 88 1010.9
20260507024833 11 44 11.3 19.3 0.00 3.94 0.00 88 1010.7
20260507023324 11 60 8.0 19.3 0.00 4.01 0.00 88 1010.7
20260507021842 11 82 9.7 24.1 0.00 4.01 0.00 89 1010.7
20260507020333 11 77 8.0 17.7 0.00 4.01 0.00 90 1010.8
20260507014827 11 70 8.0 17.7 0.00 4.01 0.00 91 1010.7
20260507013345 11 53 3.2 8.0 0.00 4.29 0.00 90 1010.8
20260507011837 11 80 3.2 4.8 0.00 4.29 0.00 90 1010.7
20260507010331 11 54 1.6 6.4 0.00 4.29 0.00 90 1010.7
20260507004829 11 46 3.2 8.0 0.00 4.29 0.00 89 1010.6
20260507003342 11 9 1.6 6.4 0.00 4.29 0.00 89 1010.5
20260507001839 11 350 4.8 17.7 0.00 4.29 0.00 88 1010.5
20260507000336 11 94 3.2 17.7 0.00 4.29 0.00 89 1010.3
20260506234829 11 41 11.3 20.9 0.00 4.29 0.00 89 1010.3
20260506233324 11 51 8.0 17.7 0.00 4.29 0.00 90 1010.4
20260506231842 11 26 6.4 20.9 0.00 4.29 0.00 90 1010.5
20260506230345 11 67 8.0 17.7 0.00 4.29 0.00 90 1010.4
20260506224838 11 85 6.4 14.5 0.00 4.29 0.00 90 1010.3
20260506223328 11 55 8.0 17.7 0.00 4.29 0.00 91 1010.1
20260506221826 11 80 8.0 17.7 0.00 4.29 0.00 91 1010.1
20260506220339 11 90 4.8 17.7 0.00 4.29 0.00 92 1010.1
20260506214834 11 63 4.8 11.3 0.00 4.29 4.29 92 1010.1
20260506213329 11 41 3.2 8.0 0.00 4.29 4.29 92 1010.1
20260506211842 11 40 4.8 17.7 0.00 4.29 4.29 92 1010.0
20260506210333 11 22 4.8 12.9 0.00 4.29 4.29 93 1009.9
20260506204835 11 347 3.2 8.0 0.00 4.29 4.29 93 1009.8
20260506203325 11 324 4.8 8.0 0.00 4.32 4.29 93 1009.8
20260506201827 11 54 3.2 4.8 0.00 4.32 4.29 93 1009.8
20260506200345 11 33 0.0 8.0 0.00 4.32 4.29 93 1009.7
20260506194836 11 53 3.2 6.4 0.00 4.32 4.29 93 1009.4
20260506193333 11 22 6.4 9.7 0.00 4.32 4.29 92 1009.1
20260506191841 11 58 0.0 4.8 0.08 4.32 4.29 92 1008.9
20260506190332 11 74 4.8 16.1 0.30 4.32 4.29 93 1008.6
20260506184835 11 99 8.0 19.3 0.48 4.32 4.29 92 1007.8
20260506183335 11 117 6.4 22.5 0.84 4.45 4.29 92 1008.2
20260506181829 12 107 16.1 20.9 0.76 4.37 4.22 91 1007.9
20260506180342 12 308 4.8 9.7 0.53 4.14 3.99 90 1008.9
20260506174834 12 55 11.3 17.7 0.36 3.96 3.81 89 1008.0
20260506173343 12 51 1.6 14.5 0.00 3.86 3.45 89 1007.6
20260506171835 12 73 4.8 11.3 0.00 3.86 3.45 90 1007.4
20260506170329 13 38 0.0 6.4 0.00 3.86 3.45 90 1007.2
20260506164838 13 70 3.2 11.3 0.00 3.86 3.45 90 1006.9
20260506163332 13 47 3.2 11.3 0.00 3.91 3.45 90 1006.9
20260506161828 13 28 12.9 30.6 0.00 3.91 3.45 90 1006.6
20260506160342 13 86 16.1 29.0 0.00 3.91 3.45 91 1006.1
20260506154839 13 78 9.7 22.5 0.00 3.91 3.45 93 1005.7
20260506153339 13 76 11.3 22.5 0.00 3.94 3.45 94 1006.3
20260506151838 13 5 8.0 16.1 0.38 3.94 3.45 94 1006.5
20260506150343 12 95 4.8 16.1 1.04 3.94 3.45 94 1006.7
20260506144834 13 78 8.0 17.7 1.45 3.94 3.45 94 1006.7
20260506143329 12 23 6.4 11.3 1.50 3.94 3.45 93 1006.6
20260506141842 12 37 1.6 12.9 1.17 3.58 3.10 93 1007.0
20260506140342 13 323 6.4 29.0 1.19 2.92 2.44 93 1006.9
20260506134837 13 19 3.2 24.1 1.07 2.51 2.03 93 1007.1
20260506133334 13 360 8.0 32.2 1.07 2.44 1.96 93 1006.8
20260506131831 13 137 4.8 19.3 1.04 2.41 1.93 92 1006.9
20260506130325 15 155 6.4 19.3 0.38 1.73 1.24 92 1007.0
20260506124844 15 98 14.5 22.5 0.13 1.47 0.99 91 1006.6
20260506123339 16 140 6.4 19.3 0.03 1.40 0.89 90 1006.7
20260506121839 16 184 8.0 32.2 0.05 1.40 0.89 89 1006.6
20260506120335 16 202 12.9 27.4 0.03 1.37 0.86 90 1006.5
20260506114828 16 184 14.5 29.0 0.03 1.37 0.86 91 1006.5
20260506113332 15 175 9.7 17.7 0.03 1.47 0.86 93 1006.6
20260506111825 15 232 8.0 19.3 0.00 1.45 0.84 93 1006.9
20260506110337 15 212 9.7 20.9 0.00 1.45 0.84 94 1006.9
20260506104831 14 104 9.7 22.5 0.00 1.45 0.84 96 1006.8
20260506103342 15 155 9.7 29.0 0.00 1.57 0.84 97 1007.2
20260506101838 13 187 9.7 30.6 0.00 1.57 0.84 97 1007.2
20260506100329 13 223 6.4 29.0 0.00 1.57 0.84 97 1007.1
20260506094829 13 175 16.1 22.5 0.00 1.57 0.84 97 1007.2
20260506093328 13 117 8.0 22.5 0.00 1.70 0.84 97 1007.2
20260506091840 13 180 14.5 22.5 0.05 1.70 0.84 97 1007.3
20260506090340 13 208 9.7 20.9 0.13 1.70 0.84 97 1007.0
20260506084841 13 163 9.7 17.7 0.18 1.70 0.84 97 1006.9
20260506083333 13 148 8.0 29.0 0.18 1.70 0.84 97 1007.2
20260506081828 13 186 6.4 16.1 0.20 1.65 0.79 97 1007.4
20260506080330 12 168 6.4 19.3 0.15 1.57 0.71 97 1007.4
20260506073337 13 181 16.1 29.0 0.15 1.85 0.66 97 1007.5
20260506071832 13 161 9.7 24.1 0.10 1.80 0.61 97 1007.4
20260506070329 13 108 8.0 17.7 0.05 1.75 0.56 97 1007.7
20260506061830 12 220 4.8 16.1 0.03 2.29 0.51 97 1007.5
20260506060330 12 188 8.0 17.7 0.05 2.29 0.51 97 1007.8
20260506050342 12 175 4.8 16.1 0.05 2.26 0.46 97 1007.9
20260506044840 12 194 6.4 11.3 0.05 2.26 0.46 97 1008.2
20260506043333 12 155 6.4 11.3 0.05 2.26 0.46 97 1008.3
20260506041832 12 194 4.8 14.5 0.05 2.24 0.43 97 1008.4